Time,TemperatureF,DewpointF,PressureIn,WindDirection,WindDirectionDegrees,WindSpeedMPH,WindSpeedGustMPH,Humidity,HourlyPrecipIn,Conditions,Clouds,dailyrainin,SoftwareType,DateUTC
2013-05-17 00:04:00,55.7,47.2,29.93,SE,142,0.0,0.0,73,0.00,,---,0.00,VWS V14.01,2013-05-17 07:04:00,
2013-05-17 00:09:00,55.6,47.1,29.93,SSW,207,0.0,0.0,73,0.00,,---,0.00,VWS V14.01,2013-05-17 07:09:00,
2013-05-17 00:14:00,55.6,47.1,29.93,SSW,205,0.0,0.0,73,0.00,,---,0.00,VWS V14.01,2013-05-17 07:14:00,
2013-05-17 00:19:00,55.4,46.9,29.94,SSE,151,0.0,0.0,73,0.00,,---,0.00,VWS V14.01,2013-05-17 07:19:00,
2013-05-17 00:24:00,55.3,46.8,29.94,SSW,194,0.0,0.0,73,0.00,,---,0.00,VWS V14.01,2013-05-17 07:24:00,
2013-05-17 00:29:00,55.1,46.6,29.94,SSE,159,0.0,0.0,73,0.00,,---,0.00,VWS V14.01,2013-05-17 07:29:00,
2013-05-17 00:34:00,55.1,46.6,29.94,South,188,0.0,0.0,73,0.00,,---,0.00,VWS V14.01,2013-05-17 07:34:00,
2013-05-17 00:39:00,55.0,46.5,29.94,SE,138,0.0,0.0,73,0.00,,---,0.00,VWS V14.01,2013-05-17 07:39:00,
2013-05-17 00:44:00,54.8,46.7,29.94,South,176,0.0,0.0,74,0.00,,---,0.00,VWS V14.01,2013-05-17 07:44:00,
2013-05-17 00:49:00,54.8,46.7,29.94,South,186,0.0,0.0,74,0.00,,---,0.00,VWS V14.01,2013-05-17 07:49:00,
2013-05-17 00:54:00,54.8,46.7,29.93,SSW,198,0.0,0.0,74,0.00,,---,0.00,VWS V14.01,2013-05-17 07:54:00,
2013-05-17 00:59:00,54.8,46.7,29.93,South,186,0.0,0.0,74,0.00,,---,0.00,VWS V14.01,2013-05-17 07:59:00,
2013-05-17 01:05:00,54.8,46.7,29.93,SSW,202,0.0,0.0,74,0.00,,---,0.00,VWS V14.01,2013-05-17 08:05:00,
2013-05-17 01:10:00,54.8,46.7,29.93,South,176,0.0,0.0,74,0.00,,---,0.00,VWS V14.01,2013-05-17 08:10:00,
2013-05-17 01:15:00,55.0,46.5,29.93,SSE,167,0.0,0.0,73,0.00,,---,0.00,VWS V14.01,2013-05-17 08:15:00,
2013-05-17 01:20:00,55.0,46.5,29.93,SSW,205,0.0,0.0,73,0.00,,---,0.00,VWS V14.01,2013-05-17 08:20:00,
2013-05-17 01:25:00,55.0,46.5,29.93,South,186,0.0,0.0,73,0.00,,---,0.00,VWS V14.01,2013-05-17 08:25:00,
2013-05-17 01:30:00,55.1,46.2,29.94,SSW,199,0.0,0.0,72,0.00,,---,0.00,VWS V14.01,2013-05-17 08:30:00,
2013-05-17 01:35:00,55.1,46.2,29.93,SSW,194,0.0,0.0,72,0.00,,---,0.00,VWS V14.01,2013-05-17 08:35:00,
2013-05-17 01:40:00,55.1,46.2,29.93,South,180,0.0,0.0,72,0.00,,---,0.00,VWS V14.01,2013-05-17 08:40:00,
2013-05-17 01:45:00,55.1,46.2,29.93,SSE,150,0.0,0.0,72,0.00,,---,0.00,VWS V14.01,2013-05-17 08:45:00,
2013-05-17 01:50:00,55.0,46.2,29.93,SSW,193,0.0,0.0,72,0.00,,---,0.00,VWS V14.01,2013-05-17 08:50:00,
2013-05-17 01:55:00,55.0,46.2,29.93,SE,130,0.0,0.0,72,0.00,,---,0.00,VWS V14.01,2013-05-17 08:55:00,
2013-05-17 02:00:00,55.0,46.2,29.93,SSE,165,0.0,0.0,72,0.00,,---,0.00,VWS V14.01,2013-05-17 09:00:00,
2013-05-17 02:05:00,55.0,46.2,29.93,SSE,166,0.0,0.0,72,0.00,,---,0.00,VWS V14.01,2013-05-17 09:05:00,
2013-05-17 02:10:00,54.8,46.0,29.93,SE,128,0.0,0.0,72,0.00,,---,0.00,VWS V14.01,2013-05-17 09:10:00,
2013-05-17 02:15:00,54.8,46.0,29.93,South,176,0.0,0.0,72,0.00,,---,0.00,VWS V14.01,2013-05-17 09:15:00,
2013-05-17 02:20:00,54.8,46.0,29.93,SE,140,0.0,0.0,72,0.00,,---,0.00,VWS V14.01,2013-05-17 09:20:00,
2013-05-17 02:25:00,54.7,45.9,29.93,SSW,196,0.0,0.0,72,0.00,,---,0.00,VWS V14.01,2013-05-17 09:25:00,
2013-05-17 02:30:00,54.7,45.9,29.93,SSE,156,0.0,0.0,72,0.00,,---,0.00,VWS V14.01,2013-05-17 09:30:00,
2013-05-17 02:35:00,54.7,46.2,29.93,SW,220,0.0,0.0,73,0.00,,---,0.00,VWS V14.01,2013-05-17 09:35:00,
2013-05-17 02:41:00,54.5,46.0,29.93,SSW,199,0.0,0.0,73,0.00,,---,0.00,VWS V14.01,2013-05-17 09:41:00,
2013-05-17 02:46:00,54.4,46.3,29.93,SSE,158,0.0,0.0,74,0.00,,---,0.00,VWS V14.01,2013-05-17 09:46:00,
2013-05-17 02:51:00,54.4,46.7,29.93,WSW,250,0.0,0.0,75,0.00,,---,0.00,VWS V14.01,2013-05-17 09:51:00,
2013-05-17 02:56:00,54.2,46.5,29.93,SSW,194,0.0,0.0,75,0.00,,---,0.00,VWS V14.01,2013-05-17 09:56:00,
2013-05-17 03:01:00,54.2,46.8,29.93,SSW,198,0.0,0.0,76,0.00,,---,0.00,VWS V14.01,2013-05-17 10:01:00,
2013-05-17 03:06:00,54.1,46.7,29.93,SE,146,0.0,0.0,76,0.00,,---,0.00,VWS V14.01,2013-05-17 10:06:00,
2013-05-17 03:11:00,54.1,47.1,29.94,SE,140,0.0,0.0,77,0.00,,---,0.00,VWS V14.01,2013-05-17 10:11:00,
2013-05-17 03:16:00,54.1,47.4,29.94,South,174,0.0,0.0,78,0.00,,---,0.00,VWS V14.01,2013-05-17 10:16:00,
2013-05-17 03:21:00,53.9,47.5,29.94,SSW,213,0.0,0.0,79,0.00,,---,0.00,VWS V14.01,2013-05-17 10:21:00,
2013-05-17 03:26:00,53.8,47.5,29.94,South,186,0.0,0.0,79,0.00,,---,0.00,VWS V14.01,2013-05-17 10:26:00,
2013-05-17 03:31:00,53.8,47.8,29.94,SSW,197,0.0,0.0,80,0.00,,---,0.00,VWS V14.01,2013-05-17 10:31:00,
2013-05-17 03:36:00,53.8,47.8,29.94,South,170,0.0,0.0,80,0.00,,---,0.00,VWS V14.01,2013-05-17 10:36:00,
2013-05-17 03:41:00,53.8,48.1,29.94,SSE,163,0.0,0.0,81,0.00,,---,0.00,VWS V14.01,2013-05-17 10:41:00,
2013-05-17 03:46:00,53.6,47.9,29.94,SSW,194,0.0,0.0,81,0.00,,---,0.00,VWS V14.01,2013-05-17 10:46:00,
2013-05-17 03:51:00,53.5,47.8,29.94,South,188,0.0,0.0,81,0.00,,---,0.00,VWS V14.01,2013-05-17 10:51:00,
2013-05-17 03:56:00,53.5,47.8,29.94,SE,130,0.0,0.0,81,0.00,,---,0.00,VWS V14.01,2013-05-17 10:56:00,
2013-05-17 04:01:00,53.5,48.2,29.94,ESE,118,0.0,0.0,82,0.00,,---,0.00,VWS V14.01,2013-05-17 11:01:00,
2013-05-17 04:06:00,53.5,48.2,29.94,SSW,192,0.0,0.0,82,0.00,,---,0.00,VWS V14.01,2013-05-17 11:06:00,
2013-05-17 04:11:00,53.3,48.0,29.94,South,186,0.0,0.0,82,0.00,,---,0.00,VWS V14.01,2013-05-17 11:11:00,
2013-05-17 04:16:00,53.3,48.0,29.94,South,178,0.0,0.0,82,0.00,,---,0.00,VWS V14.01,2013-05-17 11:16:00,
2013-05-17 04:22:00,53.3,48.0,29.94,SSW,200,0.0,0.0,82,0.00,,---,0.00,VWS V14.01,2013-05-17 11:22:00,
2013-05-17 04:27:00,53.3,48.0,29.94,South,188,0.0,0.0,82,0.00,,---,0.00,VWS V14.01,2013-05-17 11:27:00,
2013-05-17 04:32:00,53.3,48.0,29.94,SW,220,0.0,0.0,82,0.00,,---,0.00,VWS V14.01,2013-05-17 11:32:00,
2013-05-17 04:37:00,53.3,48.0,29.94,SW,214,0.0,0.0,82,0.00,,---,0.00,VWS V14.01,2013-05-17 11:37:00,
2013-05-17 04:42:00,53.2,47.9,29.94,SSE,163,0.0,0.0,82,0.00,,---,0.00,VWS V14.01,2013-05-17 11:42:00,
2013-05-17 04:47:00,53.2,48.2,29.94,ESE,121,0.0,0.0,83,0.00,,---,0.00,VWS V14.01,2013-05-17 11:47:00,
2013-05-17 04:52:00,53.2,48.2,29.94,South,170,0.0,0.0,83,0.00,,---,0.00,VWS V14.01,2013-05-17 11:52:00,
2013-05-17 04:57:00,53.1,48.1,29.94,SSE,155,0.0,0.0,83,0.00,,---,0.00,VWS V14.01,2013-05-17 11:57:00,
2013-05-17 05:02:00,53.1,48.1,29.94,South,173,0.0,0.0,83,0.00,,---,0.00,VWS V14.01,2013-05-17 12:02:00,
2013-05-17 05:07:00,52.9,47.9,29.94,SSW,197,0.0,0.0,83,0.00,,---,0.00,VWS V14.01,2013-05-17 12:07:00,
2013-05-17 05:12:00,52.9,47.6,29.94,SSE,165,0.0,0.0,82,0.00,,---,0.00,VWS V14.01,2013-05-17 12:12:00,
2013-05-17 05:17:00,52.9,47.6,29.94,SSE,159,0.0,0.0,82,0.00,,---,0.00,VWS V14.01,2013-05-17 12:17:00,
2013-05-17 05:22:00,52.9,47.6,29.94,South,169,0.0,0.0,82,0.00,,---,0.00,VWS V14.01,2013-05-17 12:22:00,
2013-05-17 05:27:00,52.9,47.6,29.94,South,187,0.0,0.0,82,0.00,,---,0.00,VWS V14.01,2013-05-17 12:27:00,
2013-05-17 05:32:00,52.8,47.5,29.94,South,171,0.0,0.0,82,0.00,,---,0.00,VWS V14.01,2013-05-17 12:32:00,
2013-05-17 05:37:00,52.8,47.5,29.94,SSE,163,0.0,0.0,82,0.00,,---,0.00,VWS V14.01,2013-05-17 12:37:00,
2013-05-17 05:42:00,52.8,47.5,29.95,South,173,0.0,0.0,82,0.00,,---,0.00,VWS V14.01,2013-05-17 12:42:00,
2013-05-17 05:47:00,52.8,47.5,29.95,South,174,0.0,0.0,82,0.00,,---,0.00,VWS V14.01,2013-05-17 12:47:00,
2013-05-17 05:52:00,52.8,47.5,29.94,SSW,203,0.0,0.0,82,0.00,,---,0.00,VWS V14.01,2013-05-17 12:52:00,
2013-05-17 05:57:00,52.8,47.5,29.94,SSW,200,0.0,0.0,82,0.00,,---,0.00,VWS V14.01,2013-05-17 12:57:00,
2013-05-17 06:03:00,52.8,47.1,29.95,SSE,163,0.0,0.0,81,0.00,,---,0.00,VWS V14.01,2013-05-17 13:03:00,
2013-05-17 06:08:00,52.8,47.1,29.95,SSW,199,0.0,0.0,81,0.00,,---,0.00,VWS V14.01,2013-05-17 13:08:00,
2013-05-17 06:13:00,52.8,47.1,29.95,South,186,0.0,0.0,81,0.00,,---,0.00,VWS V14.01,2013-05-17 13:13:00,
2013-05-17 06:18:00,52.8,47.1,29.95,SE,142,0.0,0.0,81,0.00,,---,0.00,VWS V14.01,2013-05-17 13:18:00,
2013-05-17 06:23:00,52.8,47.1,29.95,SW,218,0.0,0.0,81,0.00,,---,0.00,VWS V14.01,2013-05-17 13:23:00,
2013-05-17 06:28:00,52.8,47.1,29.95,SSE,161,0.0,0.0,81,0.00,,---,0.00,VWS V14.01,2013-05-17 13:28:00,
2013-05-17 06:33:00,52.9,47.2,29.95,South,179,0.0,0.0,81,0.00,,---,0.00,VWS V14.01,2013-05-17 13:33:00,
2013-05-17 06:38:00,52.9,47.2,29.95,South,173,0.0,0.0,81,0.00,,---,0.00,VWS V14.01,2013-05-17 13:38:00,
2013-05-17 06:43:00,52.9,47.2,29.95,South,190,0.0,0.0,81,0.00,,---,0.00,VWS V14.01,2013-05-17 13:43:00,
2013-05-17 06:48:00,53.1,47.1,29.95,South,177,0.0,0.0,80,0.00,,---,0.00,VWS V14.01,2013-05-17 13:48:00,
2013-05-17 06:53:00,53.1,47.1,29.95,South,190,0.0,0.0,80,0.00,,---,0.00,VWS V14.01,2013-05-17 13:53:00,
2013-05-17 06:58:00,53.2,47.2,29.96,SSW,193,0.0,0.0,80,0.00,,---,0.00,VWS V14.01,2013-05-17 13:58:00,
2013-05-17 07:03:00,53.2,47.2,29.96,South,179,0.0,0.0,80,0.00,,---,0.00,VWS V14.01,2013-05-17 14:03:00,
2013-05-17 07:08:00,53.2,47.2,29.96,South,171,0.0,0.0,80,0.00,,---,0.00,VWS V14.01,2013-05-17 14:08:00,
2013-05-17 07:13:00,53.2,47.2,29.96,SSE,161,0.0,0.0,80,0.00,,---,0.00,VWS V14.01,2013-05-17 14:13:00,
2013-05-17 07:18:00,53.2,47.2,29.96,SSW,193,0.0,0.0,80,0.00,,---,0.00,VWS V14.01,2013-05-17 14:18:00,
2013-05-17 07:23:00,53.2,47.2,29.96,SSW,209,0.0,0.0,80,0.00,,---,0.00,VWS V14.01,2013-05-17 14:23:00,
2013-05-17 07:28:00,53.2,47.2,29.96,ESE,119,0.0,0.0,80,0.00,,---,0.00,VWS V14.01,2013-05-17 14:28:00,
2013-05-17 07:33:00,53.2,47.2,29.96,South,170,0.0,0.0,80,0.00,,---,0.00,VWS V14.01,2013-05-17 14:33:00,
2013-05-17 07:39:00,53.2,47.2,29.96,SSE,157,0.0,0.0,80,0.00,,---,0.00,VWS V14.01,2013-05-17 14:39:00,
2013-05-17 07:44:00,53.2,47.5,29.96,SSE,161,0.0,0.0,81,0.00,,---,0.00,VWS V14.01,2013-05-17 14:44:00,
2013-05-17 07:49:00,53.3,47.6,29.96,SSE,160,0.0,0.0,81,0.00,,---,0.00,VWS V14.01,2013-05-17 14:49:00,
2013-05-17 07:54:00,53.3,47.6,29.97,South,191,0.0,0.0,81,0.00,,---,0.00,VWS V14.01,2013-05-17 14:54:00,
2013-05-17 07:59:00,53.3,47.6,29.97,SSE,163,0.0,0.0,81,0.00,,---,0.00,VWS V14.01,2013-05-17 14:59:00,
2013-05-17 08:04:00,53.5,47.8,29.96,SSW,202,0.0,0.0,81,0.00,,---,0.00,VWS V14.01,2013-05-17 15:04:00,
2013-05-17 08:09:00,53.5,47.8,29.97,South,184,0.0,0.0,81,0.00,,---,0.00,VWS V14.01,2013-05-17 15:09:00,
2013-05-17 08:14:00,53.5,47.8,29.96,SSW,193,0.0,0.0,81,0.00,,---,0.00,VWS V14.01,2013-05-17 15:14:00,
2013-05-17 08:19:00,53.6,47.9,29.97,SE,135,0.0,0.0,81,0.00,,---,0.00,VWS V14.01,2013-05-17 15:19:00,
2013-05-17 08:24:00,53.6,47.9,29.96,SSE,150,0.0,0.0,81,0.00,,---,0.00,VWS V14.01,2013-05-17 15:24:00,
2013-05-17 08:29:00,53.6,47.9,29.97,South,180,0.0,0.0,81,0.00,,---,0.00,VWS V14.01,2013-05-17 15:29:00,
2013-05-17 08:34:00,53.8,48.1,29.96,SE,136,0.0,0.0,81,0.00,,---,0.00,VWS V14.01,2013-05-17 15:34:00,
2013-05-17 08:39:00,53.8,48.1,29.96,SSE,154,0.0,0.0,81,0.00,,---,0.00,VWS V14.01,2013-05-17 15:39:00,
2013-05-17 08:44:00,53.8,48.1,29.97,WSW,237,0.0,0.0,81,0.00,,---,0.00,VWS V14.01,2013-05-17 15:44:00,
2013-05-17 08:49:00,53.9,48.2,29.97,SW,215,0.0,0.0,81,0.00,,---,0.00,VWS V14.01,2013-05-17 15:49:00,
2013-05-17 08:55:00,53.9,47.9,29.97,SSE,167,0.0,0.0,80,0.00,,---,0.00,VWS V14.01,2013-05-17 15:55:00,
2013-05-17 09:00:00,54.1,48.1,29.97,South,189,0.0,0.0,80,0.00,,---,0.00,VWS V14.01,2013-05-17 16:00:00,
2013-05-17 09:05:00,54.2,48.2,29.96,SE,134,0.0,0.0,80,0.00,,---,0.00,VWS V14.01,2013-05-17 16:05:00,
2013-05-17 09:10:00,54.2,48.2,29.96,SE,138,0.0,0.0,80,0.00,,---,0.00,VWS V14.01,2013-05-17 16:10:00,
2013-05-17 09:15:00,54.4,48.4,29.96,South,182,0.0,0.0,80,0.00,,---,0.00,VWS V14.01,2013-05-17 16:15:00,
2013-05-17 09:20:00,54.5,48.1,29.96,SSW,192,0.0,0.0,79,0.00,,---,0.00,VWS V14.01,2013-05-17 16:20:00,
2013-05-17 09:25:00,54.7,48.3,29.96,South,186,0.0,0.0,79,0.00,,---,0.00,VWS V14.01,2013-05-17 16:25:00,
2013-05-17 09:30:00,54.8,48.1,29.96,SE,146,0.0,0.0,78,0.00,,---,0.00,VWS V14.01,2013-05-17 16:30:00,
2013-05-17 09:35:00,55.0,48.3,29.96,South,182,0.0,0.0,78,0.00,,---,0.00,VWS V14.01,2013-05-17 16:35:00,
2013-05-17 09:40:00,55.1,48.0,29.97,SE,131,0.0,0.0,77,0.00,,---,0.00,VWS V14.01,2013-05-17 16:40:00,
2013-05-17 09:45:00,55.1,48.0,29.97,South,181,0.0,0.0,77,0.00,,---,0.00,VWS V14.01,2013-05-17 16:45:00,
2013-05-17 09:50:00,55.1,47.3,29.97,ESE,115,0.0,0.0,75,0.00,,---,0.00,VWS V14.01,2013-05-17 16:50:00,
2013-05-17 09:55:00,55.3,47.5,29.97,SE,136,0.0,0.0,75,0.00,,---,0.00,VWS V14.01,2013-05-17 16:55:00,
2013-05-17 10:00:00,55.6,47.8,29.97,SSW,202,0.0,0.0,75,0.00,,---,0.00,VWS V14.01,2013-05-17 17:00:00,
2013-05-17 10:05:00,55.6,47.5,29.97,South,191,0.0,0.0,74,0.00,,---,0.00,VWS V14.01,2013-05-17 17:05:00,
2013-05-17 10:10:00,55.7,47.2,29.97,SSW,192,0.0,0.0,73,0.00,,---,0.00,VWS V14.01,2013-05-17 17:10:00,
2013-05-17 10:16:00,55.9,47.4,29.97,SW,225,0.0,0.0,73,0.00,,---,0.00,VWS V14.01,2013-05-17 17:16:00,
2013-05-17 10:21:00,55.7,47.2,29.97,WSW,240,0.0,0.0,73,0.00,,---,0.00,VWS V14.01,2013-05-17 17:21:00,
2013-05-17 10:26:00,55.6,46.0,29.97,South,182,0.0,0.0,70,0.00,,---,0.00,VWS V14.01,2013-05-17 17:26:00,
2013-05-17 10:31:00,55.6,46.0,29.97,South,186,0.0,0.0,70,0.00,,---,0.00,VWS V14.01,2013-05-17 17:31:00,
2013-05-17 10:36:00,55.7,45.7,29.98,SSW,200,0.0,0.0,69,0.00,,---,0.00,VWS V14.01,2013-05-17 17:36:00,
2013-05-17 10:41:00,56.0,46.0,29.98,South,190,0.0,0.0,69,0.00,,---,0.00,VWS V14.01,2013-05-17 17:41:00,
2013-05-17 10:46:00,56.0,45.6,29.98,SE,142,0.0,0.0,68,0.00,,---,0.00,VWS V14.01,2013-05-17 17:46:00,
2013-05-17 10:51:00,56.0,45.2,29.98,SSW,210,0.0,0.0,67,0.00,,---,0.00,VWS V14.01,2013-05-17 17:51:00,
2013-05-17 10:56:00,56.0,44.8,29.98,SSE,165,0.0,0.0,66,0.00,,---,0.00,VWS V14.01,2013-05-17 17:56:00,
2013-05-17 11:01:00,56.0,44.8,29.98,South,186,0.0,0.0,66,0.00,,---,0.00,VWS V14.01,2013-05-17 18:01:00,
2013-05-17 11:06:00,56.2,45.4,29.98,SSW,201,0.0,0.0,67,0.00,,---,0.00,VWS V14.01,2013-05-17 18:06:00,
2013-05-17 11:11:00,56.5,45.3,29.98,ESE,116,0.0,0.0,66,0.00,,---,0.00,VWS V14.01,2013-05-17 18:11:00,
2013-05-17 11:16:00,56.9,45.3,29.98,SE,136,0.0,0.0,65,0.00,,---,0.00,VWS V14.01,2013-05-17 18:16:00,
2013-05-17 11:21:00,57.0,45.0,29.98,SSW,194,0.0,0.0,64,0.00,,---,0.00,VWS V14.01,2013-05-17 18:21:00,
2013-05-17 11:26:00,57.2,45.6,29.98,SSE,167,0.0,0.0,65,0.00,,---,0.00,VWS V14.01,2013-05-17 18:26:00,
2013-05-17 11:31:00,57.0,45.4,29.98,South,173,0.0,0.0,65,0.00,,---,0.00,VWS V14.01,2013-05-17 18:31:00,
2013-05-17 11:37:00,57.0,45.4,29.98,ESE,112,0.0,0.0,65,0.00,,---,0.00,VWS V14.01,2013-05-17 18:37:00,
2013-05-17 11:42:00,57.0,45.4,29.98,SW,223,0.0,0.0,65,0.00,,---,0.00,VWS V14.01,2013-05-17 18:42:00,
2013-05-17 11:47:00,57.2,45.6,29.98,South,169,0.0,0.0,65,0.00,,---,0.00,VWS V14.01,2013-05-17 18:47:00,
2013-05-17 11:52:00,57.3,45.2,29.98,South,190,0.0,0.0,64,0.00,,---,0.00,VWS V14.01,2013-05-17 18:52:00,
2013-05-17 11:57:00,57.5,45.4,29.98,South,178,0.0,0.0,64,0.00,,---,0.00,VWS V14.01,2013-05-17 18:57:00,
2013-05-17 12:02:00,57.8,44.9,29.98,WSW,244,0.0,0.0,62,0.00,,---,0.00,VWS V14.01,2013-05-17 19:02:00,
2013-05-17 12:07:00,58.0,44.2,29.98,SSE,149,0.0,0.0,60,0.00,,---,0.00,VWS V14.01,2013-05-17 19:07:00,
2013-05-17 12:12:00,58.1,43.0,29.98,SSW,202,0.0,0.0,57,0.00,,---,0.00,VWS V14.01,2013-05-17 19:12:00,
2013-05-17 12:17:00,58.3,42.2,29.98,SW,223,0.0,0.0,55,0.00,,---,0.00,VWS V14.01,2013-05-17 19:17:00,
2013-05-17 12:22:00,58.6,42.5,29.98,SSE,165,0.0,0.0,55,0.00,,---,0.00,VWS V14.01,2013-05-17 19:22:00,
2013-05-17 12:27:00,59.3,42.7,29.98,SE,133,0.0,0.0,54,0.00,,---,0.00,VWS V14.01,2013-05-17 19:27:00,
2013-05-17 12:32:00,59.8,43.1,29.98,SE,138,0.0,0.0,54,0.00,,---,0.00,VWS V14.01,2013-05-17 19:32:00,
2013-05-17 12:37:00,60.2,43.0,29.98,South,174,0.0,0.0,53,0.00,,---,0.00,VWS V14.01,2013-05-17 19:37:00,
2013-05-17 12:42:00,60.2,43.0,29.98,SSE,160,0.0,0.0,53,0.00,,---,0.00,VWS V14.01,2013-05-17 19:42:00,
2013-05-17 12:47:00,60.1,42.4,29.98,South,173,0.0,0.0,52,0.00,,---,0.00,VWS V14.01,2013-05-17 19:47:00,
2013-05-17 12:52:00,60.1,42.4,29.98,SSW,195,0.0,0.0,52,0.00,,---,0.00,VWS V14.01,2013-05-17 19:52:00,
2013-05-17 12:58:00,59.8,42.7,29.98,South,190,0.0,0.0,53,0.00,,---,0.00,VWS V14.01,2013-05-17 19:58:00,
2013-05-17 13:03:00,59.9,42.7,29.98,South,182,0.0,0.0,53,0.00,,---,0.00,VWS V14.01,2013-05-17 20:03:00,
2013-05-17 13:08:00,59.9,42.2,29.98,South,182,0.0,0.0,52,0.00,,---,0.00,VWS V14.01,2013-05-17 20:08:00,
2013-05-17 13:13:00,60.1,42.4,29.98,SW,227,0.0,0.0,52,0.00,,---,0.00,VWS V14.01,2013-05-17 20:13:00,
2013-05-17 13:18:00,59.9,42.2,29.98,South,190,0.0,0.0,52,0.00,,---,0.00,VWS V14.01,2013-05-17 20:18:00,
2013-05-17 13:23:00,59.8,43.1,29.98,SW,218,0.0,0.0,54,0.00,,---,0.00,VWS V14.01,2013-05-17 20:23:00,
2013-05-17 13:28:00,59.6,43.0,29.98,SSE,151,0.0,0.0,54,0.00,,---,0.00,VWS V14.01,2013-05-17 20:28:00,
2013-05-17 13:33:00,59.6,43.4,29.98,South,184,0.0,0.0,55,0.00,,---,0.00,VWS V14.01,2013-05-17 20:33:00,
2013-05-17 13:38:00,59.9,42.7,29.98,SSW,210,0.0,0.0,53,0.00,,---,0.00,VWS V14.01,2013-05-17 20:38:00,
2013-05-17 13:43:00,60.1,42.9,29.98,SSW,209,0.0,0.0,53,0.00,,---,0.00,VWS V14.01,2013-05-17 20:43:00,
2013-05-17 13:48:00,60.2,42.5,29.98,SSW,197,0.0,0.0,52,0.00,,---,0.00,VWS V14.01,2013-05-17 20:48:00,
2013-05-17 13:53:00,60.2,42.0,29.98,SSW,202,0.0,0.0,51,0.00,,---,0.00,VWS V14.01,2013-05-17 20:53:00,
2013-05-17 13:58:00,60.4,42.2,29.98,ESE,123,0.0,0.0,51,0.00,,---,0.00,VWS V14.01,2013-05-17 20:58:00,
2013-05-17 14:03:00,60.5,41.8,29.98,SSW,200,0.0,0.0,50,0.00,,---,0.00,VWS V14.01,2013-05-17 21:03:00,
2013-05-17 14:08:00,60.5,41.8,29.98,South,175,0.0,0.0,50,0.00,,---,0.00,VWS V14.01,2013-05-17 21:08:00,
2013-05-17 14:13:00,60.5,41.3,29.98,WSW,240,0.0,0.0,49,0.00,,---,0.00,VWS V14.01,2013-05-17 21:13:00,
2013-05-17 14:18:00,60.5,41.8,29.98,SE,131,0.0,0.0,50,0.00,,---,0.00,VWS V14.01,2013-05-17 21:18:00,
2013-05-17 14:23:00,60.5,41.8,29.98,South,169,0.0,0.0,50,0.00,,---,0.00,VWS V14.01,2013-05-17 21:23:00,
2013-05-17 14:29:00,60.5,41.8,29.98,SSE,157,0.0,0.0,50,0.00,,---,0.00,VWS V14.01,2013-05-17 21:29:00,
2013-05-17 14:34:00,60.7,42.5,29.98,SSW,203,0.0,0.0,51,0.00,,---,0.00,VWS V14.01,2013-05-17 21:34:00,
2013-05-17 14:39:00,60.7,42.0,29.98,SSE,163,0.0,0.0,50,0.00,,---,0.00,VWS V14.01,2013-05-17 21:39:00,
2013-05-17 14:44:00,60.7,42.0,29.98,SSE,168,0.0,0.0,50,0.00,,---,0.00,VWS V14.01,2013-05-17 21:44:00,
2013-05-17 14:49:00,60.7,41.5,29.98,SSW,195,0.0,0.0,49,0.00,,---,0.00,VWS V14.01,2013-05-17 21:49:00,
2013-05-17 14:54:00,60.7,41.5,29.98,WSW,245,0.0,0.0,49,0.00,,---,0.00,VWS V14.01,2013-05-17 21:54:00,
2013-05-17 14:59:00,61.0,40.7,29.98,SSW,192,0.0,0.0,47,0.00,,---,0.00,VWS V14.01,2013-05-17 21:59:00,
2013-05-17 15:04:00,61.0,40.7,29.98,South,182,0.0,0.0,47,0.00,,---,0.00,VWS V14.01,2013-05-17 22:04:00,
2013-05-17 15:09:00,61.0,40.7,29.98,SE,146,0.0,0.0,47,0.00,,---,0.00,VWS V14.01,2013-05-17 22:09:00,
2013-05-17 15:14:00,61.0,40.7,29.98,SSE,161,0.0,0.0,47,0.00,,---,0.00,VWS V14.01,2013-05-17 22:14:00,
2013-05-17 15:19:00,60.9,40.5,29.98,SSE,165,0.0,0.0,47,0.00,,---,0.00,VWS V14.01,2013-05-17 22:19:00,
2013-05-17 15:24:00,60.9,40.0,29.98,SSE,164,0.0,0.0,46,0.00,,---,0.00,VWS V14.01,2013-05-17 22:24:00,
2013-05-17 15:29:00,60.9,40.5,29.97,SE,142,0.0,0.0,47,0.00,,---,0.00,VWS V14.01,2013-05-17 22:29:00,
2013-05-17 15:35:00,61.0,40.7,29.97,South,191,0.0,0.0,47,0.00,,---,0.00,VWS V14.01,2013-05-17 22:35:00,
2013-05-17 15:40:00,61.2,40.8,29.97,SSE,162,0.0,0.0,47,0.00,,---,0.00,VWS V14.01,2013-05-17 22:40:00,
2013-05-17 15:45:00,61.5,41.1,29.97,SE,138,0.0,0.0,47,0.00,,---,0.00,VWS V14.01,2013-05-17 22:45:00,
2013-05-17 15:50:00,61.8,40.8,29.97,South,190,0.0,0.0,46,0.00,,---,0.00,VWS V14.01,2013-05-17 22:50:00,
2013-05-17 15:55:00,61.8,41.4,29.97,SSE,163,0.0,0.0,47,0.00,,---,0.00,VWS V14.01,2013-05-17 22:55:00,
2013-05-17 16:00:00,61.8,41.4,29.97,SSW,201,0.0,0.0,47,0.00,,---,0.00,VWS V14.01,2013-05-17 23:00:00,
2013-05-17 16:05:00,61.8,41.9,29.97,SE,138,0.0,0.0,48,0.00,,---,0.00,VWS V14.01,2013-05-17 23:05:00,
2013-05-17 16:10:00,62.0,41.6,29.97,South,172,0.0,0.0,47,0.00,,---,0.00,VWS V14.01,2013-05-17 23:10:00,
2013-05-17 16:15:00,61.8,41.4,29.97,South,188,0.0,0.0,47,0.00,,---,0.00,VWS V14.01,2013-05-17 23:15:00,
2013-05-17 16:20:00,61.8,41.9,29.97,South,180,0.0,0.0,48,0.00,,---,0.00,VWS V14.01,2013-05-17 23:20:00,
2013-05-17 16:25:00,62.0,42.6,29.97,SSE,159,0.0,0.0,49,0.00,,---,0.00,VWS V14.01,2013-05-17 23:25:00,
2013-05-17 16:30:00,62.0,42.1,29.97,SSE,162,0.0,0.0,48,0.00,,---,0.00,VWS V14.01,2013-05-17 23:30:00,
2013-05-17 16:35:00,62.0,42.1,29.97,SE,142,0.0,0.0,48,0.00,,---,0.00,VWS V14.01,2013-05-17 23:35:00,
2013-05-17 16:40:00,62.0,42.1,29.96,SSE,161,0.0,0.0,48,0.00,,---,0.00,VWS V14.01,2013-05-17 23:40:00,
2013-05-17 16:45:00,62.1,42.2,29.97,South,175,0.0,0.0,48,0.00,,---,0.00,VWS V14.01,2013-05-17 23:45:00,
2013-05-17 16:50:00,62.3,42.9,29.97,South,171,0.0,0.0,49,0.00,,---,0.00,VWS V14.01,2013-05-17 23:50:00,
2013-05-17 16:55:00,62.6,42.7,29.97,SE,140,0.0,0.0,48,0.00,,---,0.00,VWS V14.01,2013-05-17 23:55:00,
2013-05-17 17:01:00,62.6,42.7,29.97,SE,141,0.0,0.0,48,0.00,,---,0.00,VWS V14.01,2013-05-18 00:01:00,
2013-05-17 17:06:00,63.2,42.7,29.97,SW,223,0.0,0.0,47,0.00,,---,0.00,VWS V14.01,2013-05-18 00:06:00,
2013-05-17 17:11:00,63.2,42.7,29.97,SSE,159,0.0,0.0,47,0.00,,---,0.00,VWS V14.01,2013-05-18 00:11:00,
2013-05-17 17:16:00,63.2,43.2,29.97,SE,137,0.0,0.0,48,0.00,,---,0.00,VWS V14.01,2013-05-18 00:16:00,
2013-05-17 17:21:00,63.1,42.6,29.97,SSE,159,0.0,0.0,47,0.00,,---,0.00,VWS V14.01,2013-05-18 00:21:00,
2013-05-17 17:26:00,62.9,42.4,29.97,SW,215,0.0,0.0,47,0.00,,---,0.00,VWS V14.01,2013-05-18 00:26:00,
2013-05-17 17:31:00,62.9,42.9,29.97,SE,127,0.0,0.0,48,0.00,,---,0.00,VWS V14.01,2013-05-18 00:31:00,
2013-05-17 17:36:00,63.2,43.2,29.97,SSW,208,0.0,0.0,48,0.00,,---,0.00,VWS V14.01,2013-05-18 00:36:00,
2013-05-17 17:41:00,63.5,44.0,29.97,SSW,193,0.0,0.0,49,0.00,,---,0.00,VWS V14.01,2013-05-18 00:41:00,
2013-05-17 17:46:00,63.7,43.1,29.97,SW,225,0.0,0.0,47,0.00,,---,0.00,VWS V14.01,2013-05-18 00:46:00,
2013-05-17 17:51:00,63.5,44.0,29.97,South,183,0.0,0.0,49,0.00,,---,0.00,VWS V14.01,2013-05-18 00:51:00,
2013-05-17 17:56:00,63.5,44.0,29.97,WNW,288,0.0,0.0,49,0.00,,---,0.00,VWS V14.01,2013-05-18 00:56:00,
2013-05-17 18:01:00,63.7,44.2,29.97,ESE,121,0.0,0.0,49,0.00,,---,0.00,VWS V14.01,2013-05-18 01:01:00,
2013-05-17 18:06:00,63.5,44.0,29.97,South,171,0.0,0.0,49,0.00,,---,0.00,VWS V14.01,2013-05-18 01:06:00,
2013-05-17 18:11:00,63.4,45.0,29.97,South,184,0.0,0.0,51,0.00,,---,0.00,VWS V14.01,2013-05-18 01:11:00,
2013-05-17 18:16:00,63.2,45.3,29.97,ESE,107,0.0,0.0,52,0.00,,---,0.00,VWS V14.01,2013-05-18 01:16:00,
2013-05-17 18:21:00,63.1,44.7,29.97,South,188,0.0,0.0,51,0.00,,---,0.00,VWS V14.01,2013-05-18 01:21:00,
2013-05-17 18:26:00,62.7,44.8,29.97,SW,229,0.0,0.0,52,0.00,,---,0.00,VWS V14.01,2013-05-18 01:26:00,
2013-05-17 18:32:00,62.4,45.1,29.97,SE,130,0.0,0.0,53,0.00,,---,0.00,VWS V14.01,2013-05-18 01:32:00,
2013-05-17 18:37:00,62.4,45.1,29.97,SSW,205,0.0,0.0,53,0.00,,---,0.00,VWS V14.01,2013-05-18 01:37:00,
2013-05-17 18:42:00,62.6,45.2,29.97,SE,125,0.0,0.0,53,0.00,,---,0.00,VWS V14.01,2013-05-18 01:42:00,
2013-05-17 18:47:00,62.7,45.3,29.97,ESE,121,0.0,0.0,53,0.00,,---,0.00,VWS V14.01,2013-05-18 01:47:00,
2013-05-17 18:52:00,62.7,45.3,29.97,SW,226,0.0,0.0,53,0.00,,---,0.00,VWS V14.01,2013-05-18 01:52:00,
2013-05-17 18:57:00,62.7,45.3,29.97,SSE,159,0.0,0.0,53,0.00,,---,0.00,VWS V14.01,2013-05-18 01:57:00,
2013-05-17 19:02:00,62.7,45.3,29.97,South,171,0.0,0.0,53,0.00,,---,0.00,VWS V14.01,2013-05-18 02:02:00,
2013-05-17 19:07:00,62.4,45.1,29.97,South,171,0.0,0.0,53,0.00,,---,0.00,VWS V14.01,2013-05-18 02:07:00,
2013-05-17 19:12:00,62.4,45.5,29.98,SSE,155,0.0,0.0,54,0.00,,---,0.00,VWS V14.01,2013-05-18 02:12:00,
2013-05-17 19:17:00,62.4,46.0,29.98,South,191,0.0,0.0,55,0.00,,---,0.00,VWS V14.01,2013-05-18 02:17:00,
2013-05-17 19:22:00,62.4,46.0,29.98,WSW,248,0.0,0.0,55,0.00,,---,0.00,VWS V14.01,2013-05-18 02:22:00,
2013-05-17 19:27:00,62.1,45.8,29.98,South,177,0.0,0.0,55,0.00,,---,0.00,VWS V14.01,2013-05-18 02:27:00,
2013-05-17 19:32:00,61.5,45.7,29.98,SSW,209,0.0,0.0,56,0.00,,---,0.00,VWS V14.01,2013-05-18 02:32:00,
2013-05-17 19:37:00,60.9,46.0,29.98,SSE,155,0.0,0.0,58,0.00,,---,0.00,VWS V14.01,2013-05-18 02:37:00,
2013-05-17 19:42:00,60.5,46.1,29.98,SSW,195,0.0,0.0,59,0.00,,---,0.00,VWS V14.01,2013-05-18 02:42:00,
2013-05-17 19:47:00,60.4,46.0,29.98,SE,127,0.0,0.0,59,0.00,,---,0.00,VWS V14.01,2013-05-18 02:47:00,
2013-05-17 19:52:00,60.1,47.0,29.98,SW,223,0.0,0.0,62,0.00,,---,0.00,VWS V14.01,2013-05-18 02:52:00,
2013-05-17 19:58:00,59.9,46.9,29.98,SSW,192,0.0,0.0,62,0.00,,---,0.00,VWS V14.01,2013-05-18 02:58:00,
2013-05-17 20:03:00,59.8,47.2,29.98,SSW,197,0.0,0.0,63,0.00,,---,0.00,VWS V14.01,2013-05-18 03:03:00,
2013-05-17 20:08:00,59.6,47.4,29.99,SSW,212,0.0,0.0,64,0.00,,---,0.00,VWS V14.01,2013-05-18 03:08:00,
2013-05-17 20:13:00,59.3,47.1,29.99,SSE,150,0.0,0.0,64,0.00,,---,0.00,VWS V14.01,2013-05-18 03:13:00,
2013-05-17 20:18:00,59.2,47.0,29.99,SSE,155,0.0,0.0,64,0.00,,---,0.00,VWS V14.01,2013-05-18 03:18:00,
2013-05-17 20:23:00,59.0,46.8,29.99,SSW,205,0.0,0.0,64,0.00,,---,0.00,VWS V14.01,2013-05-18 03:23:00,
2013-05-17 20:28:00,58.9,46.8,29.99,SSE,148,0.0,0.0,64,0.00,,---,0.00,VWS V14.01,2013-05-18 03:28:00,
2013-05-17 20:33:00,58.7,46.6,29.99,SSW,209,0.0,0.0,64,0.00,,---,0.00,VWS V14.01,2013-05-18 03:33:00,
2013-05-17 20:38:00,58.6,46.9,30.00,South,183,0.0,0.0,65,0.00,,---,0.00,VWS V14.01,2013-05-18 03:38:00,
2013-05-17 20:43:00,58.4,46.7,30.00,SSW,213,0.0,0.0,65,0.00,,---,0.00,VWS V14.01,2013-05-18 03:43:00,
2013-05-17 20:48:00,58.3,47.0,30.00,SW,225,0.0,0.0,66,0.00,,---,0.00,VWS V14.01,2013-05-18 03:48:00,
2013-05-17 20:53:00,58.1,46.8,30.00,South,170,0.0,0.0,66,0.00,,---,0.00,VWS V14.01,2013-05-18 03:53:00,
2013-05-17 20:58:00,58.0,46.7,30.00,SSE,163,0.0,0.0,66,0.00,,---,0.00,VWS V14.01,2013-05-18 03:58:00,
2013-05-17 21:01:00,58.0,46.7,30.00,WSW,238,0.0,0.0,66,0.00,,---,0.00,VWS V14.01,2013-05-18 04:01:00,
2013-05-17 21:02:00,58.0,46.7,30.00,SSW,194,0.0,0.0,66,0.00,,---,0.00,VWS V14.01,2013-05-18 04:02:00,
2013-05-17 21:07:00,57.8,46.9,30.00,South,171,0.0,0.0,67,0.00,,---,0.00,VWS V14.01,2013-05-18 04:07:00,
2013-05-17 21:12:00,57.6,46.7,30.00,SE,143,0.0,0.0,67,0.00,,---,0.00,VWS V14.01,2013-05-18 04:12:00,
2013-05-17 21:17:00,57.6,47.1,30.00,South,182,0.0,0.0,68,0.00,,---,0.00,VWS V14.01,2013-05-18 04:17:00,
2013-05-17 21:22:00,57.5,47.4,30.01,SW,235,0.0,0.0,69,0.00,,---,0.00,VWS V14.01,2013-05-18 04:22:00,
2013-05-17 21:27:00,57.3,47.6,30.01,SSW,199,0.0,0.0,70,0.00,,---,0.00,VWS V14.01,2013-05-18 04:27:00,
2013-05-17 21:32:00,57.2,47.9,30.01,SE,134,0.0,0.0,71,0.00,,---,0.00,VWS V14.01,2013-05-18 04:32:00,
2013-05-17 21:37:00,57.0,47.3,30.01,West,272,0.0,0.0,70,0.00,,---,0.00,VWS V14.01,2013-05-18 04:37:00,
2013-05-17 21:42:00,56.7,47.0,30.01,SSW,200,0.0,0.0,70,0.00,,---,0.00,VWS V14.01,2013-05-18 04:42:00,
2013-05-17 21:47:00,56.6,46.6,30.01,South,182,0.0,0.0,69,0.00,,---,0.00,VWS V14.01,2013-05-18 04:47:00,
2013-05-17 21:52:00,56.5,46.5,30.01,South,184,0.0,0.0,69,0.00,,---,0.00,VWS V14.01,2013-05-18 04:52:00,
2013-05-17 21:58:00,56.3,46.3,30.01,SE,146,0.0,0.0,69,0.00,,---,0.00,VWS V14.01,2013-05-18 04:58:00,
2013-05-17 22:03:00,56.2,45.8,30.02,SSW,203,0.0,0.0,68,0.00,,---,0.00,VWS V14.01,2013-05-18 05:03:00,
2013-05-17 22:08:00,56.0,46.0,30.02,SW,226,0.0,0.0,69,0.00,,---,0.00,VWS V14.01,2013-05-18 05:08:00,
2013-05-17 22:13:00,55.9,45.9,30.02,SSW,197,0.0,0.0,69,0.00,,---,0.00,VWS V14.01,2013-05-18 05:13:00,
2013-05-17 22:18:00,55.7,45.7,30.02,SSW,200,0.0,0.0,69,0.00,,---,0.00,VWS V14.01,2013-05-18 05:18:00,
2013-05-17 22:23:00,55.6,45.6,30.02,SSE,161,0.0,0.0,69,0.00,,---,0.00,VWS V14.01,2013-05-18 05:23:00,
2013-05-17 22:28:00,55.4,45.4,30.02,SSE,158,0.0,0.0,69,0.00,,---,0.00,VWS V14.01,2013-05-18 05:28:00,
2013-05-17 22:33:00,55.3,45.7,30.02,South,188,0.0,0.0,70,0.00,,---,0.00,VWS V14.01,2013-05-18 05:33:00,
2013-05-17 22:38:00,55.1,45.5,30.03,SSW,193,0.0,0.0,70,0.00,,---,0.00,VWS V14.01,2013-05-18 05:38:00,
2013-05-17 22:43:00,55.0,45.8,30.03,SW,230,0.0,0.0,71,0.00,,---,0.00,VWS V14.01,2013-05-18 05:43:00,
2013-05-17 22:48:00,54.8,45.6,30.03,South,180,0.0,0.0,71,0.00,,---,0.00,VWS V14.01,2013-05-18 05:48:00,
2013-05-17 22:53:00,54.7,45.9,30.03,South,184,0.0,0.0,72,0.00,,---,0.00,VWS V14.01,2013-05-18 05:53:00,
2013-05-17 22:58:00,54.5,45.7,30.03,SSW,195,0.0,0.0,72,0.00,,---,0.00,VWS V14.01,2013-05-18 05:58:00,
2013-05-17 23:03:00,54.4,45.6,30.03,WSW,240,0.0,0.0,72,0.00,,---,0.00,VWS V14.01,2013-05-18 06:03:00,
2013-05-17 23:08:00,54.2,45.4,30.03,SSW,209,0.0,0.0,72,0.00,,---,0.00,VWS V14.01,2013-05-18 06:08:00,
2013-05-17 23:13:00,54.1,45.7,30.03,SSE,166,0.0,0.0,73,0.00,,---,0.00,VWS V14.01,2013-05-18 06:13:00,
2013-05-17 23:18:00,53.9,45.5,30.03,South,184,0.0,0.0,73,0.00,,---,0.00,VWS V14.01,2013-05-18 06:18:00,
2013-05-17 23:23:00,53.8,45.4,30.04,SE,126,0.0,0.0,73,0.00,,---,0.00,VWS V14.01,2013-05-18 06:23:00,
2013-05-17 23:28:00,53.6,45.2,30.04,SSW,198,0.0,0.0,73,0.00,,---,0.00,VWS V14.01,2013-05-18 06:28:00,
2013-05-17 23:33:00,53.6,45.2,30.04,SSE,164,0.0,0.0,73,0.00,,---,0.00,VWS V14.01,2013-05-18 06:33:00,
2013-05-17 23:39:00,53.5,45.1,30.04,SSE,154,0.0,0.0,73,0.00,,---,0.00,VWS V14.01,2013-05-18 06:39:00,
2013-05-17 23:44:00,53.5,45.1,30.04,South,171,0.0,0.0,73,0.00,,---,0.00,VWS V14.01,2013-05-18 06:44:00,
2013-05-17 23:49:00,53.5,45.1,30.04,SSW,198,0.0,0.0,73,0.00,,---,0.00,VWS V14.01,2013-05-18 06:49:00,
2013-05-17 23:54:00,53.5,45.1,30.04,SSE,150,0.0,0.0,73,0.00,,---,0.00,VWS V14.01,2013-05-18 06:54:00,
2013-05-17 23:59:00,53.3,45.2,30.04,South,173,0.0,0.0,74,0.00,,---,0.00,VWS V14.01,2013-05-18 06:59:00,